This is the latest recevied weather packets stored in our database for station/object KC5DAQ-29. If no packets are shown the sender has not sent any weather packets the latest 1 day(s).
| Time | Temp. | Humidity | Pressure | Rain* | Wind** | Luminosity | Snow |
|---|---|---|---|---|---|---|---|
| 1777998109 | 25° C | 100% | 1007 hPa | 0 mm | 0 m/s | 123 W/m² | - |
| 1777998051 | 25° C | 100% | 1007 hPa | 0 mm | 0 m/s | 93 W/m² | - |
| 1777997989 | 25° C | 100% | 1006.9 hPa | 0 mm | 0.45 m/s, 158° | 93 W/m² | - |
| 1777997929 | 25° C | 100% | 1007 hPa | 0 mm | 0.89 m/s, 161° | 93 W/m² | - |
| 1777997870 | 25° C | 100% | 1007 hPa | 0 mm | 0.45 m/s, 159° | 139 W/m² | - |
| 1777997809 | 25° C | 100% | 1007 hPa | 0 mm | 0.45 m/s, 188° | 139 W/m² | - |
| 1777997749 | 25° C | 100% | 1007.1 hPa | 0 mm | 0.89 m/s, 188° | 139 W/m² | - |
| 1777997689 | 25° C | 100% | 1007 hPa | 0 mm | 0.89 m/s, 202° | 225 W/m² | - |
| 1777997629 | 25° C | 100% | 1007 hPa | 0 mm | 0.89 m/s, 200° | 225 W/m² | - |
| 1777997569 | 25° C | 100% | 1006.9 hPa | 0 mm | 0.89 m/s, 220° | 225 W/m² | - |
| 1777997509 | 25° C | 100% | 1007 hPa | 0 mm | 0.89 m/s, 223° | 222 W/m² | - |
| 1777997448 | 25° C | 100% | 1007.1 hPa | 0 mm | 0.89 m/s, 210° | 181 W/m² | - |
| 1777997388 | 25° C | 100% | 1007 hPa | 0 mm | 0.89 m/s, 228° | 181 W/m² | - |
| 1777997329 | 25° C | 100% | 1007 hPa | 0 mm | 0.89 m/s, 178° | 181 W/m² | - |
| 1777997269 | 25° C | 100% | 1007 hPa | 0 mm | 0.89 m/s, 220° | 181 W/m² | - |
| 1777997209 | 24.44° C | 100% | 1007 hPa | 0 mm | 0.89 m/s, 158° | 181 W/m² | - |
| 1777997148 | 24.44° C | 100% | 1007 hPa | 0 mm | 0.89 m/s, 204° | 179 W/m² | - |
| 1777997088 | 24.44° C | 100% | 1007.1 hPa | 0 mm | 1.34 m/s, 212° | 176 W/m² | - |
| 1777997028 | 24.44° C | 100% | 1007.1 hPa | 0 mm | 1.34 m/s, 202° | 176 W/m² | - |
| 1777996968 | 24.44° C | 100% | 1007 hPa | 0 mm | 1.34 m/s, 140° | 176 W/m² | - |
| 1777996907 | 24.44° C | 100% | 1007.1 hPa | 0 mm | 1.34 m/s, 159° | 176 W/m² | - |
| 1777996850 | 24.44° C | 100% | 1007 hPa | 0 mm | 1.34 m/s, 206° | 181 W/m² | - |
| 1777996789 | 24.44° C | 100% | 1007 hPa | 0 mm | 1.79 m/s, 224° | 188 W/m² | - |
| 1777996728 | 24.44° C | 100% | 1007 hPa | 0 mm | 1.79 m/s, 224° | - | - |
| 1777996668 | 24.44° C | 100% | 1007 hPa | 0 mm | 1.79 m/s, 141° | 216 W/m² | - |
* Rain latest hour (hover to see other rain measurements)
** Current wind speed in m/s (hover to see current wind gust speed)